Regional Weather Roundup
Issued by NWS State College, PA

Home | Current Version | Previous Version | Graphics & Text | Print | Product List | Glossary On
Versions: 1 2 3 4 5 6 7 8 9 10 11 12 13 14 15 16 17 18 19 20 21 22 23 24 25 26 27 28 29 30 31 32 33 34 35 36 37 38 39 40 41 42 43 44 45 46 47 48 49 50
000
ASUS41 KCTP 021403
RWRCTP

REGIONAL WEATHER ROUNDUP
NATIONAL WEATHER SERVICE STATE COLLEGE PA
1000 AM EDT MON MAY 02 2016

Note: "fair" indicates few or no clouds below 12,000 feet with no
significant weather and/or obstructions to visibility.

* = STATION THAT DOES NOT REPORT PRECIPITATION /E.G. RAIN...SNOW...ETC/
    THUNDER OR FOG.

PAZ002>004-007>009-013>016-020>023-029>032-021500-
WESTERN PENNSYLVANIA

CITY           SKY/WX    TMP DP  RH WIND       PRES   REMARKS
ERIE           CLOUDY    45  43  93 NE10G21   29.97R
MEADVILLE        N/A    N/A N/A N/A MISG      29.93R
FRANKLIN*      CLOUDY    50  46  87 W13       29.94R
NEW CASTLE     CLOUDY    51  49  92 W7        29.95R
BEAVER COUNTY  CLOUDY    55  54  94 NW7       29.92R
BUTLER*        CLOUDY    57  54  88 W8        29.93S
PITTSBURGH INT PTSUNNY   64  55  72 W10G23    29.89F
PITTSBURGH     PTSUNNY   63  55  75 SW15      29.90S
INDIANA*       CLOUDY    63  57  82 W13G21    29.93S
LATROBE        PTSUNNY   63  61  94 W14       29.92S
WASHINGTON CO* CLOUDY    63  55  77 SW12G17   29.92S
$$

PAZ004>006-010>012-017>019-024>028-033>037-041-042-045-046-049>053-021500-
CENTRAL PENNSYLVANIA

CITY           SKY/WX    TMP DP  RH WIND       PRES   REMARKS
BRADFORD       CLOUDY    51  48  89 CALM      29.87S
DUBOIS         CLOUDY    56  53  90 W13       29.88R
CLEARFIELD     CLOUDY    59  54  83 SW9       29.88S
JOHNSTOWN      CLOUDY    60  52  74 SW15      29.91F
ALTOONA        CLOUDY    62  57  83 S13       29.91F
STATE COLLEGE  CLOUDY    55  54  94 SW12      29.90R FOG
WILLIAMSPORT   CLOUDY    52  48  86 SE8G20    29.90F
SELINSGROVE    CLOUDY    52  49  89 S7        29.93S
FT INDIANTOWN  CLOUDY    50  50 100 SE2       29.96R
CAPITAL CITY   CLOUDY    54  51  90 E6        29.95S FOG
HARRISBURG     CLOUDY    53  51  93 SE6       29.95R FOG
YORK           CLOUDY    56  53  90 CALM      29.93F
$$

PAZ038>040-043-044-047-048-054-055-060>062-067>071-021500-
EASTERN PENNSYLVANIA

CITY           SKY/WX    TMP DP  RH WIND       PRES   REMARKS
SCRANTON       CLOUDY    50  46  86 CALM      29.91F
MOUNT POCONO   FOG       43  42  97 SE8       29.92F VSB 1/4
ALLENTOWN      CLOUDY    49  45  86 E6        29.96F FOG
QUAKERTOWN*    CLOUDY    46  46 100 SE5       29.97F
READING        CLOUDY    50  47  89 S7        29.95F
LANCASTER      CLOUDY    51  50  96 SE6       29.96S
COATESVILLE    FOG       48  48 100 VRB5      29.98R VSB<1/4
POTTSTOWN      CLOUDY    48  48 100 VRB3      29.99S FOG
BLUE BELL      NOT AVBL
DOYLESTOWN     CLOUDY    45  45 100 VRB5      29.96F FOG
WILLOW GROVE   NOT AVBL
NORTH PHILA    CLOUDY    51  47  86 E7        29.99F FOG
PHILADELPHIA   LGT RAIN  51  47  86 SE7       29.98F FOG
$$




USA.gov is the U.S. government's official web portal to all federal, state and local government web resources and services.